Regional Weather Roundup
Issued by NWS

Home | Current Version | Previous Version | Graphics & Text | Print | Product List | Glossary On
Versions: 1 2 3 4 5 6 7 8 9 10 11 12 13 14 15 16 17 18 19 20 21 22 23 24 25 26 27 28 29 30 31 32 33 34 35 36 37 38 39 40 41 42 43 44 45 46 47 48 49 50
000
ASUS43 KBIS 231710
RWRND

NORTH DAKOTA REGIONAL WEATHER ROUNDUP
NATIONAL WEATHER SERVICE BISMARCK ND
1200 PM CDT WED APR 23 2014

NOTE: "FAIR" INDICATES FEW OR NO CLOUDS BELOW 12,000 FEET WITH NO
SIGNIFICANT WEATHER AND/OR OBSTRUCTIONS TO VISIBILITY.


NDZ001>003-009>011-017-231800-
NORTHWEST NORTH DAKOTA

CITY           SKY/WX    TMP DP  RH WIND       PRES   REMARKS
WILLISTON      CLOUDY    58  38  47 SE18G30   29.44S
MINOT          LGT RAIN  49  41  74 SE29G41   29.57S
MINOT AFB      CLOUDY    48  46  93 SE25G38   29.58R
$$

NDZ018>021-031>035-040>046-231800-
SOUTHWEST NORTH DAKOTA

CITY           SKY/WX    TMP DP  RH WIND       PRES   REMARKS
BISMARCK       PTSUNNY   57  38  48 SE33G41   29.56S
DICKINSON      CLOUDY    55  36  48 S20G28    29.44R
GARRISON         N/A     55  40  56 SE26G39   29.52F
HETTINGER ARPT CLOUDY    53  39  59 SE9       29.48R
$$

NDZ004>008-012>016-024-026-027-054-231800-
NORTHEAST NORTH DAKOTA

CITY           SKY/WX    TMP DP  RH WIND       PRES   REMARKS
GRAND FORKS    LGT RAIN  44  38  79 SE18      29.88R
GRND FRKS AFB  LGT RAIN  44  42  95 SE13      29.87S
DEVILS LAKE    CLOUDY    43  36  75 SE20G25   29.76F
$$

NDZ022-023-025-028>030-036>039-047>053-231800-
SOUTHEAST NORTH DAKOTA

CITY           SKY/WX    TMP DP  RH WIND       PRES   REMARKS
FARGO          LGT RAIN  44  40  85 SE21G32   29.86S
JAMESTOWN      CLOUDY    50  43  77 SE36G44   29.71F
$$




USA.gov is the U.S. government's official web portal to all federal, state and local government web resources and services.